User: anonymous   Login
Location: Unspecified
(0.0000°N, 0.0000°E)
Time: 05:19:04
(UTC+01:00)
Language:

Cosmos 1295 Rocket - Orbit

View from above orbital plane
View from above orbital plane
View from above satellite
View from above satellite

Ground track
Ground track

The orbit data is extracted from the following two-line orbital elements,

1 12682U 81077B   15026.85907133  .00000032  00000-0  16571-4 0  8608
2 12682 082.9196 308.5505 0032655 270.4571 150.1535 13.78474605682684
Epoch (UTC): 26 January 2015 20:37:03
Eccentricity: 0.0032655
inclination: 82.9196°
perigee height: 945 km
apogee height: 993 km
right ascension of ascending node: 308.5505°
argument of perigee: 270.4571°
revolutions per day: 13.78474605
mean anomaly at epoch: 150.1535°
orbit number at epoch: 68268

The dashed part of the orbit path shows where the satellite is in the earth's shadow,  

DLR